Time,TemperatureF,DewpointF,PressureIn,WindDirection,WindDirectionDegrees,WindSpeedMPH,WindSpeedGustMPH,Humidity,HourlyPrecipIn,Conditions,Clouds,dailyrainin,SoftwareType,DateUTC
2013-03-17 00:12:00,54.4,42.0,29.88,SSW,197,0.0,0.0,64,0.00,,,0.00,weatherlink.com 1.10,2013-03-17 04:12:00,
2013-03-17 00:27:00,55.0,42.0,29.88,SSW,197,0.0,0.0,63,0.00,,,0.00,weatherlink.com 1.10,2013-03-17 04:27:00,
2013-03-17 00:42:00,55.6,43.0,29.88,SSW,197,0.0,0.0,63,0.00,,,0.00,weatherlink.com 1.10,2013-03-17 04:42:00,
2013-03-17 00:58:00,56.8,43.0,29.88,SSW,197,0.0,0.0,61,0.00,,,0.00,weatherlink.com 1.10,2013-03-17 04:58:00,
2013-03-17 01:13:00,57.0,43.0,29.89,SSW,197,0.0,0.0,61,0.00,,,0.00,weatherlink.com 1.10,2013-03-17 05:13:00,
2013-03-17 01:28:00,57.0,43.0,29.89,SSW,197,0.0,0.0,61,0.00,,,0.00,weatherlink.com 1.10,2013-03-17 05:28:00,
2013-03-17 01:43:00,56.8,43.0,29.88,WNW,297,0.0,0.0,61,0.00,,,0.00,weatherlink.com 1.10,2013-03-17 05:43:00,
2013-03-17 01:58:00,57.1,44.0,29.88,SSW,204,0.0,0.0,61,0.00,,,0.00,weatherlink.com 1.10,2013-03-17 05:58:00,
2013-03-17 02:13:00,57.0,43.0,29.88,SSW,207,0.0,0.0,61,0.00,,,0.00,weatherlink.com 1.10,2013-03-17 06:13:00,
2013-03-17 02:28:00,56.6,44.0,29.88,SSW,197,0.0,0.0,62,0.00,,,0.00,weatherlink.com 1.10,2013-03-17 06:28:00,
2013-03-17 02:43:00,55.9,43.0,29.88,SSW,201,0.0,0.0,63,0.00,,,0.00,weatherlink.com 1.10,2013-03-17 06:43:00,
2013-03-17 02:58:00,55.8,43.0,29.88,SSE,166,0.0,0.0,63,0.00,,,0.00,weatherlink.com 1.10,2013-03-17 06:58:00,
2013-03-17 03:13:00,55.7,44.0,29.88,SSE,166,0.0,0.0,64,0.00,,,0.00,weatherlink.com 1.10,2013-03-17 07:13:00,
2013-03-17 03:36:00,55.8,43.0,29.87,SSW,208,0.0,0.0,63,0.00,,,0.00,weatherlink.com 1.10,2013-03-17 07:36:00,
2013-03-17 03:43:00,55.8,43.0,29.87,SSW,208,0.0,0.0,62,0.00,,,0.00,weatherlink.com 1.10,2013-03-17 07:43:00,
2013-03-17 03:58:00,55.6,43.0,29.87,SSW,210,0.0,0.0,62,0.00,,,0.00,weatherlink.com 1.10,2013-03-17 07:58:00,
2013-03-17 04:13:00,55.2,43.0,29.86,SW,219,0.0,0.0,63,0.00,,,0.00,weatherlink.com 1.10,2013-03-17 08:13:00,
2013-03-17 04:28:00,55.2,43.0,29.86,WSW,252,0.0,0.0,63,0.00,,,0.00,weatherlink.com 1.10,2013-03-17 08:28:00,
2013-03-17 04:43:00,54.7,43.0,29.86,SW,218,0.0,0.0,65,0.00,,,0.00,weatherlink.com 1.10,2013-03-17 08:43:00,
2013-03-17 04:58:00,54.5,43.0,29.86,SW,218,0.0,0.0,65,0.00,,,0.00,weatherlink.com 1.10,2013-03-17 08:58:00,
2013-03-17 05:13:00,54.7,43.0,29.86,East,101,0.0,0.0,66,0.00,,,0.00,weatherlink.com 1.10,2013-03-17 09:13:00,
2013-03-17 05:28:00,54.5,43.0,29.86,ESE,102,0.0,0.0,66,0.00,,,0.00,weatherlink.com 1.10,2013-03-17 09:28:00,
2013-03-17 05:43:00,53.9,43.0,29.86,SW,224,0.0,0.0,67,0.00,,,0.00,weatherlink.com 1.10,2013-03-17 09:43:00,
2013-03-17 05:58:00,53.0,43.0,29.87,SW,224,0.0,0.0,69,0.00,,,0.00,weatherlink.com 1.10,2013-03-17 09:58:00,
2013-03-17 06:13:00,52.7,43.0,29.87,SE,143,0.0,0.0,69,0.00,,,0.00,weatherlink.com 1.10,2013-03-17 10:13:00,
2013-03-17 06:28:00,51.8,43.0,29.88,SE,144,0.0,0.0,71,0.00,,,0.00,weatherlink.com 1.10,2013-03-17 10:28:00,
2013-03-17 06:43:00,51.3,43.0,29.88,SE,143,0.0,0.0,73,0.00,,,0.00,weatherlink.com 1.10,2013-03-17 10:43:00,
2013-03-17 06:58:00,51.4,43.0,29.89,SW,226,0.0,0.0,73,0.00,,,0.00,weatherlink.com 1.10,2013-03-17 10:58:00,
2013-03-17 07:13:00,51.5,43.0,29.89,SW,217,0.0,0.0,73,0.00,,,0.00,weatherlink.com 1.10,2013-03-17 11:13:00,
2013-03-17 07:28:00,51.2,43.0,29.89,SW,234,0.0,1.0,74,0.00,,,0.00,weatherlink.com 1.10,2013-03-17 11:28:00,
2013-03-17 07:43:00,50.6,43.0,29.89,SW,235,0.0,0.0,76,0.00,,,0.00,weatherlink.com 1.10,2013-03-17 11:43:00,
2013-03-17 07:58:00,50.7,44.0,29.89,SW,235,0.0,0.0,77,0.00,,,0.00,weatherlink.com 1.10,2013-03-17 11:58:00,
2013-03-17 08:13:00,50.3,44.0,29.90,SW,222,0.0,0.0,79,0.00,,,0.00,weatherlink.com 1.10,2013-03-17 12:13:00,
2013-03-17 08:28:00,50.3,44.0,29.90,SW,222,0.0,0.0,80,0.00,,,0.00,weatherlink.com 1.10,2013-03-17 12:28:00,
2013-03-17 08:43:00,51.2,45.0,29.90,SW,223,0.0,0.0,79,0.00,,,0.00,weatherlink.com 1.10,2013-03-17 12:43:00,
2013-03-17 08:58:00,53.1,46.0,29.91,SW,222,0.0,0.0,77,0.00,,,0.00,weatherlink.com 1.10,2013-03-17 12:58:00,
2013-03-17 09:13:00,55.1,47.0,29.91,SW,222,0.0,0.0,74,0.00,,,0.00,weatherlink.com 1.10,2013-03-17 13:13:00,
2013-03-17 09:28:00,57.4,47.0,29.91,SE,128,0.0,2.0,69,0.00,,,0.00,weatherlink.com 1.10,2013-03-17 13:28:00,
2013-03-17 09:43:00,58.1,48.0,29.91,SW,217,0.0,1.0,68,0.00,,,0.00,weatherlink.com 1.10,2013-03-17 13:43:00,
2013-03-17 09:58:00,58.2,48.0,29.91,NW,319,0.0,2.0,68,0.00,,,0.00,weatherlink.com 1.10,2013-03-17 13:58:00,
2013-03-17 10:14:00,59.8,48.0,29.91,South,190,0.0,3.0,66,0.00,,,0.00,weatherlink.com 1.10,2013-03-17 14:14:00,
2013-03-17 10:30:00,61.5,50.0,29.91,SSW,211,1.0,4.0,65,0.00,,,0.00,weatherlink.com 1.10,2013-03-17 14:30:00,
2013-03-17 10:44:00,63.4,50.0,29.91,NNE,15,0.0,3.0,61,0.00,,,0.00,weatherlink.com 1.10,2013-03-17 14:44:00,
2013-03-17 10:59:00,63.9,50.0,29.91,NW,326,1.0,2.0,61,0.00,,,0.00,weatherlink.com 1.10,2013-03-17 14:59:00,
2013-03-17 11:14:00,64.6,50.0,29.91,West,271,0.0,5.0,59,0.00,,,0.00,weatherlink.com 1.10,2013-03-17 15:14:00,
2013-03-17 11:29:00,66.0,50.0,29.90,West,270,1.0,4.0,57,0.00,,,0.00,weatherlink.com 1.10,2013-03-17 15:29:00,
2013-03-17 11:44:00,65.4,51.0,29.90,NW,314,2.0,3.0,59,0.00,,,0.00,weatherlink.com 1.10,2013-03-17 15:44:00,
2013-03-17 11:59:00,65.5,51.0,29.90,NNW,341,1.0,4.0,59,0.00,,,0.00,weatherlink.com 1.10,2013-03-17 15:59:00,
2013-03-17 12:14:00,65.5,50.0,29.90,SE,124,0.0,3.0,57,0.00,,,0.00,weatherlink.com 1.10,2013-03-17 16:14:00,
2013-03-17 12:29:00,65.7,50.0,29.89,SW,226,2.0,3.0,58,0.00,,,0.00,weatherlink.com 1.10,2013-03-17 16:29:00,
2013-03-17 12:44:00,66.6,50.0,29.88,NW,306,0.0,4.0,56,0.00,,,0.00,weatherlink.com 1.10,2013-03-17 16:44:00,
2013-03-17 12:59:00,68.4,49.0,29.88,SE,143,0.0,4.0,51,0.00,,,0.00,weatherlink.com 1.10,2013-03-17 16:59:00,
2013-03-17 13:14:00,69.6,48.0,29.87,ESE,114,1.0,5.0,46,0.00,,,0.00,weatherlink.com 1.10,2013-03-17 17:14:00,
2013-03-17 13:29:00,68.4,49.0,29.86,ESE,117,1.0,5.0,50,0.00,,,0.00,weatherlink.com 1.10,2013-03-17 17:29:00,
2013-03-17 13:44:00,70.1,47.0,29.85,SW,221,1.0,4.0,44,0.00,,,0.00,weatherlink.com 1.10,2013-03-17 17:44:00,
2013-03-17 13:59:00,71.4,48.0,29.85,ESE,104,3.0,4.0,43,0.00,,,0.00,weatherlink.com 1.10,2013-03-17 17:59:00,
2013-03-17 14:14:00,70.4,47.0,29.84,NNW,331,0.0,5.0,44,0.00,,,0.00,weatherlink.com 1.10,2013-03-17 18:14:00,
2013-03-17 14:29:00,69.3,48.0,29.84,SSW,193,0.0,3.0,47,0.00,,,0.00,weatherlink.com 1.10,2013-03-17 18:29:00,
2013-03-17 14:44:00,68.8,48.0,29.83,WNW,294,1.0,4.0,47,0.00,,,0.00,weatherlink.com 1.10,2013-03-17 18:44:00,
2013-03-17 14:59:00,68.5,48.0,29.82,SSE,168,1.0,6.0,48,0.00,,,0.00,weatherlink.com 1.10,2013-03-17 18:59:00,
2013-03-17 15:14:00,68.0,47.0,29.83,WNW,301,0.0,6.0,48,0.00,,,0.00,weatherlink.com 1.10,2013-03-17 19:14:00,
2013-03-17 15:29:00,67.0,47.0,29.82,North,6,2.0,5.0,49,0.00,,,0.00,weatherlink.com 1.10,2013-03-17 19:29:00,
2013-03-17 15:44:00,67.2,48.0,29.83,WSW,249,1.0,5.0,50,0.00,,,0.00,weatherlink.com 1.10,2013-03-17 19:44:00,
2013-03-17 15:59:00,67.0,48.0,29.83,NW,316,0.0,2.0,51,0.00,,,0.00,weatherlink.com 1.10,2013-03-17 19:59:00,
2013-03-17 16:15:00,66.2,47.0,29.83,WSW,249,3.0,5.0,50,0.00,,,0.00,weatherlink.com 1.10,2013-03-17 20:15:00,
2013-03-17 16:29:00,66.1,47.0,29.83,SSE,156,2.0,6.0,50,0.00,,,0.00,weatherlink.com 1.10,2013-03-17 20:29:00,
2013-03-17 16:59:00,65.6,45.0,29.83,ENE,63,1.0,-999.0,48,-99.99,,,0.00,weatherlink.com 1.10,2013-03-17 20:59:00,
2013-03-17 17:14:00,65.6,44.0,29.83,East,82,1.0,3.0,46,0.00,,,0.00,weatherlink.com 1.10,2013-03-17 21:14:00,
2013-03-17 17:29:00,65.1,44.0,29.83,North,353,1.0,3.0,47,0.00,,,0.00,weatherlink.com 1.10,2013-03-17 21:29:00,
2013-03-17 17:44:00,64.5,45.0,29.83,WNW,301,1.0,4.0,50,0.00,,,0.00,weatherlink.com 1.10,2013-03-17 21:44:00,
2013-03-17 17:59:00,63.9,45.0,29.83,ESE,111,1.0,2.0,51,0.00,,,0.00,weatherlink.com 1.10,2013-03-17 21:59:00,
2013-03-17 18:14:00,63.3,45.0,29.83,SE,132,1.0,3.0,51,0.00,,,0.00,weatherlink.com 1.10,2013-03-17 22:14:00,
2013-03-17 18:29:00,62.7,44.0,29.83,ESE,121,0.0,4.0,50,0.00,,,0.00,weatherlink.com 1.10,2013-03-17 22:29:00,
2013-03-17 18:44:00,62.3,44.0,29.83,SSW,200,0.0,2.0,51,0.00,,,0.00,weatherlink.com 1.10,2013-03-17 22:44:00,
2013-03-17 18:59:00,61.6,44.0,29.83,SE,125,0.0,1.0,53,0.00,,,0.00,weatherlink.com 1.10,2013-03-17 22:59:00,
2013-03-17 19:14:00,60.8,44.0,29.84,SSW,211,0.0,1.0,55,0.00,,,0.00,weatherlink.com 1.10,2013-03-17 23:14:00,
2013-03-17 19:29:00,59.9,44.0,29.84,SSW,211,0.0,0.0,57,0.00,,,0.00,weatherlink.com 1.10,2013-03-17 23:29:00,
2013-03-17 19:44:00,59.0,44.0,29.84,SSW,211,0.0,0.0,59,0.00,,,0.00,weatherlink.com 1.10,2013-03-17 23:44:00,
2013-03-17 19:59:00,58.1,45.0,29.85,SSW,212,0.0,0.0,62,0.00,,,0.00,weatherlink.com 1.10,2013-03-17 23:59:00,
2013-03-17 20:15:00,57.1,45.0,29.85,SSW,211,0.0,0.0,64,0.00,,,0.00,weatherlink.com 1.10,2013-03-18 00:15:00,
2013-03-17 20:29:00,56.5,45.0,29.86,SSW,211,0.0,0.0,66,0.00,,,0.00,weatherlink.com 1.10,2013-03-18 00:29:00,
2013-03-17 20:44:00,55.7,45.0,29.86,SSW,212,0.0,0.0,68,0.00,,,0.00,weatherlink.com 1.10,2013-03-18 00:44:00,
2013-03-17 20:59:00,54.5,45.0,29.86,SSW,211,0.0,0.0,71,0.00,,,0.00,weatherlink.com 1.10,2013-03-18 00:59:00,
2013-03-17 21:15:00,54.3,45.0,29.86,SSW,211,0.0,0.0,72,0.00,,,0.00,weatherlink.com 1.10,2013-03-18 01:15:00,
2013-03-17 21:30:00,54.6,46.0,29.86,SSW,211,0.0,0.0,73,0.00,,,0.00,weatherlink.com 1.10,2013-03-18 01:30:00,
2013-03-17 21:45:00,54.6,46.0,29.87,SSW,211,0.0,0.0,73,0.00,,,0.00,weatherlink.com 1.10,2013-03-18 01:45:00,
2013-03-17 22:00:00,54.9,46.0,29.87,WNW,290,0.0,1.0,73,0.00,,,0.00,weatherlink.com 1.10,2013-03-18 02:00:00,
2013-03-17 22:15:00,55.1,46.0,29.88,South,189,0.0,1.0,72,0.00,,,0.00,weatherlink.com 1.10,2013-03-18 02:15:00,
2013-03-17 22:30:00,55.3,46.0,29.88,South,180,0.0,2.0,72,0.00,,,0.00,weatherlink.com 1.10,2013-03-18 02:30:00,
2013-03-17 22:45:00,55.6,47.0,29.88,SE,143,0.0,1.0,72,0.00,,,0.00,weatherlink.com 1.10,2013-03-18 02:45:00,
2013-03-17 23:00:00,55.5,47.0,29.88,NW,320,0.0,3.0,72,0.00,,,0.00,weatherlink.com 1.10,2013-03-18 03:00:00,
2013-03-17 23:15:00,55.0,46.0,29.89,SSW,202,1.0,1.0,73,0.00,,,0.00,weatherlink.com 1.10,2013-03-18 03:15:00,
2013-03-17 23:30:00,55.2,47.0,29.89,SE,124,0.0,2.0,74,0.00,,,0.00,weatherlink.com 1.10,2013-03-18 03:30:00,
2013-03-17 23:45:00,55.0,47.0,29.89,South,189,0.0,3.0,75,0.00,,,0.00,weatherlink.com 1.10,2013-03-18 03:45:00,